Regional Weather Roundup
Issued by NWS

Home | Current Version | Previous Version | Text Only | Print | Product List | Glossary Off
Versions: 1 2 3 4 5 6 7 8 9 10 11 12 13 14 15 16 17 18 19 20 21 22 23 24 25 26 27 28 29 30 31 32 33 34 35 36 37 38 39 40 41 42 43 44 45 46 47 48 49 50

000
ASUS45 KBOI 201210
RWRID
WEATHER ROUNDUP FOR IDAHO
NATIONAL WEATHER SERVICE BOISE ID
600 AM MDT MON OCT 20 2014

NOTE: "FAIR" INDICATES FEW OR NO CLOUDS BELOW 12000 FEET
WITH NO SIGNIFICANT WEATHER AND/OR OBSTRUCTIONS TO VISIBILITY

IDZ012-014-201300-
SOUTHWEST IDAHO


CITY           SKY/WX    TMP DP  RH WIND       PRES   REMARKS
BOISE          CLEAR     56  31  38 SE10      29.84F
CALDWELL       CLEAR     43  28  56 NW5       29.88S
MOUNTAIN HOME  CLEAR     54  32  42 SE14      29.87S
$$

IDZ016-017-201300-
SOUTHCENTRAL IDAHO


CITY           SKY/WX    TMP DP  RH WIND       PRES   REMARKS
BURLEY         CLEAR     43  32  65 VRB6      29.97S
JEROME         LGT RAIN  50  29  44 NE18      29.94F
TWIN FALLS     CLEAR     50  31  48 NE3       29.94F
$$

IDZ019>023-201300-
SOUTHEAST IDAHO


CITY           SKY/WX    TMP DP  RH WIND       PRES   REMARKS
IDAHO FALLS    CLEAR     34  29  82 N7        30.06S WCI  28
POCATELLO      CLEAR     34  31  88 CALM      30.04R
REXBURG        PTCLDY    34  28  79 NE5       30.07S WCI  30
$$

IDZ006-010-011-018-031-032-201300-
CENTRAL IDAHO MOUNTAINS


CITY           SKY/WX    TMP DP  RH WIND       PRES   REMARKS
MCCALL         CLEAR     33  29  85 CALM      29.94S
HAILEY         CLEAR     41  30  65 NW9       30.07S
STANLEY          N/A     27  23  85 CALM      30.08S
SALMON         NOT AVBL
CHALLIS        CLEAR     35  26  69 S3        30.04F
$$

IDZ002-004-006-007-026-201300-
NORTHERN IDAHO


CITY           SKY/WX    TMP DP  RH WIND       PRES   REMARKS
LEWISTON       PTCLDY    49  42  77 E6        29.75F
LOWELL           N/A     44  42  93 VRB3      29.90R
COEUR D`ALENE  CLEAR     45  41  87 E9        29.76F
MULLAN PASS    CLEAR     48  30  49 VRB6      29.91S
$$



USA.gov is the U.S. government's official web portal to all federal, state and local government web resources and services.